Plattsburgh, NY

10:16 PM EST on December 11, 2019 (GMT -0500)
Plattsburgh International

Weather History for KPBG - November, 2019

Change the Weather History Date:

Tuesday, November 12, 2019

  Actual Average Record
Temperature  
Mean Temperature 19 °F 38 °F  
Max Temperature 26 °F 48 °F 67 °F (2012)
Min Temperature 12 °F 29 °F 17 °F (1976)
Degree Days  
Heating Degree Days 46 27  
Month to date heating degree days 385 298  
Since 1 July heating degree days 1041 1081  
Cooling Degree Days 0 0  
Month to date cooling degree days 0 0  
Year to date cooling degree days 406 346  
Moisture  
Dew Point 12 °F    
Average Humidity 75    
Maximum Humidity 92    
Minimum Humidity 53    
Precipitation  
Precipitation 0.28 in - 0.55 in (1984)
Month to date precipitation 0.81 0.00  
Year to date precipitation 28.23  
Sea Level Pressure  
Sea Level Pressure 29.92 in    
Wind  
Wind Speed 10 mph ()    
Max Wind Speed 18 mph    
Max Gust Speed 28 mph    
Visibility 4.6 miles    
Events Fog , Snow    
T = Trace of Precipitation, MM = Missing Value Source: Averaged Metar Reports

Daily Weather History Graph

Daily Weather History Graph

Search for Another Location

Airport or City:

Astronomy

Nov. 12, 2019 Rise Set
Actual Time 6:46 AM EST 4:29 PM EST
Civil Twilight 6:14 AM EST 5:00 PM EST
Nautical Twilight 5:39 AM EST 5:35 PM EST
Astronomical Twilight 5:05 AM EST 6:09 PM EST
Moon 4:56 PM EST 6:32 AM EST
Length of Visible Light 10h 45m
Length of Day
9h 43m
Full, 100% of the Moon is Illuminated
Nov 12
Full
Nov 19
Last Quarter
Nov 26
New
Dec 4
First Quarter
Dec 12
Full

Hourly Weather History & Observations

Time (EST) Temp. Windchill Dew Point Humidity Pressure Visibility Wind Dir Wind Speed Gust Speed Precip Events Conditions
12:53 AM 19.9 °F 6.7 °F 17.1 °F 89% 29.93 in 1.8 mi NNW 13.8 mph - 0.02 in Snow Light Snow
1:53 AM 19.9 °F 6.7 °F 16.0 °F 85% 29.90 in 3.0 mi NNW 13.8 mph - 0.03 in Snow Light Snow
2:12 AM 19.9 °F 6.2 °F 16.0 °F 85% 29.88 in 1.8 mi NNW 15.0 mph - 0.00 in Snow Light Snow
2:35 AM 19.0 °F 5.6 °F 16.0 °F 88% 29.88 in 0.8 mi NNW 13.8 mph - 0.02 in Snow Light Snow
2:53 AM 19.0 °F 6.1 °F 16.0 °F 88% 29.87 in 0.8 mi NNW 12.7 mph - 0.03 in Snow Light Snow
3:00 AM 19.0 °F 4.5 °F 16.0 °F 88% 29.85 in 0.5 mi NNW 16.1 mph - 0.01 in Fog , Snow Snow
3:28 AM 19.0 °F 6.1 °F 16.0 °F 88% 29.85 in 0.8 mi NW 12.7 mph - 0.03 in Snow Light Snow
3:36 AM 19.0 °F 6.8 °F 16.0 °F 88% 29.85 in 0.5 mi NNW 11.5 mph - 0.04 in Fog , Snow Snow
3:43 AM 19.0 °F 8.2 °F 16.0 °F 88% 29.84 in 0.8 mi NNW 9.2 mph - 0.05 in Snow Light Snow
3:53 AM 19.0 °F 7.5 °F 16.0 °F 88% 29.86 in 0.8 mi NNW 10.4 mph - 0.06 in Snow Light Snow
4:02 AM 19.0 °F 6.1 °F 16.0 °F 88% 29.84 in 0.5 mi NNW 12.7 mph - 0.01 in Fog , Snow Snow
4:23 AM 19.0 °F 7.5 °F 16.0 °F 88% 29.84 in 0.8 mi NW 10.4 mph - 0.03 in Snow Light Snow
4:53 AM 19.9 °F 9.3 °F 17.1 °F 89% 29.86 in 0.8 mi NW 9.2 mph - 0.05 in Snow Light Snow
5:22 AM 19.9 °F 10.1 °F 17.1 °F 89% 29.84 in 0.5 mi NW 8.1 mph - 0.03 in Fog , Snow Snow
5:36 AM 19.9 °F 9.3 °F 17.1 °F 89% 29.84 in 0.8 mi NW 9.2 mph - 0.04 in Snow Light Snow
5:53 AM 19.9 °F 10.1 °F 17.1 °F 89% 29.86 in 0.8 mi NW 8.1 mph - 0.05 in Snow Light Snow
6:07 AM 19.9 °F 9.3 °F 17.1 °F 89% 29.84 in 1.0 mi NW 9.2 mph - 0.00 in Snow Light Snow
6:15 AM 19.9 °F 9.3 °F 17.1 °F 89% 29.84 in 1.2 mi WNW 9.2 mph - 0.01 in Snow Light Snow
6:53 AM 19.9 °F 9.3 °F 17.1 °F 89% 29.86 in 1.2 mi NW 9.2 mph - 0.02 in Snow Light Snow
7:17 AM 19.9 °F 11.1 °F 17.1 °F 89% 29.86 in 0.8 mi WNW 6.9 mph - 0.00 in Snow Light Snow
7:53 AM 19.9 °F 11.1 °F 17.1 °F 89% 29.89 in 0.8 mi WNW 6.9 mph - 0.01 in Snow Light Snow
8:25 AM 21.0 °F 14.6 °F 18.0 °F 88% 29.88 in 1.2 mi Variable 4.6 mph - 0.01 in Snow Light Snow
8:37 AM 21.0 °F 13.4 °F 17.1 °F 85% 29.89 in 3.0 mi WNW 5.8 mph - 0.01 in Snow Light Snow
8:53 AM 21.0 °F 13.4 °F 16.0 °F 81% 29.90 in 4.0 mi WNW 5.8 mph - 0.01 in Snow Light Snow
9:53 AM 23.0 °F 13.9 °F 12.9 °F 65% 29.91 in 10.0 mi WNW 8.1 mph - 0.00 in   Mostly Cloudy
10:53 AM 24.1 °F 15.2 °F 12.9 °F 62% 29.92 in 10.0 mi NW 8.1 mph - N/A   Overcast
11:53 AM 26.1 °F 21.9 °F 12.9 °F 58% 29.92 in 10.0 mi Variable 3.5 mph - N/A   Overcast
12:53 PM 25.0 °F 16.3 °F 12.0 °F 58% 29.93 in 10.0 mi WNW 8.1 mph - N/A   Overcast
1:53 PM 24.1 °F 14.4 °F 10.0 °F 55% 29.94 in 10.0 mi West 9.2 mph 24.2 mph 0.00 in   Overcast
2:53 PM 23.0 °F 15.8 °F 9.0 °F 55% 29.96 in 10.0 mi West 5.8 mph - N/A   Overcast
3:53 PM 21.0 °F 10.6 °F 7.0 °F 55% 29.99 in 10.0 mi WNW 9.2 mph - N/A   Scattered Clouds
4:53 PM 19.0 °F 11.1 °F 7.0 °F 59% 30.01 in 10.0 mi Variable 5.8 mph - N/A   Mostly Cloudy
5:53 PM 18.0 °F 6.1 °F 5.0 °F 57% 30.02 in 6.0 mi WNW 10.4 mph 21.9 mph 0.00 in   Mostly Cloudy
6:03 PM 18.0 °F 4.8 °F 3.9 °F 54% 30.02 in 10.0 mi WNW 12.7 mph 23.0 mph 0.00 in   Scattered Clouds
6:53 PM 17.1 °F 2.5 °F 3.0 °F 54% 30.04 in 10.0 mi WNW 15.0 mph 24.2 mph 0.00 in   Scattered Clouds
7:53 PM 15.1 °F 0.5 °F 1.0 °F 54% 30.05 in 10.0 mi West 13.8 mph 26.5 mph N/A   Partly Cloudy
8:53 PM 14.0 °F 2.9 °F -0.0 °F 54% 30.06 in 10.0 mi WNW 8.1 mph 19.6 mph N/A   Clear
9:53 PM 14.0 °F 3.9 °F -0.0 °F 54% 30.07 in 10.0 mi NW 6.9 mph 17.3 mph N/A   Clear
10:53 PM 12.9 °F 2.6 °F -0.0 °F 56% 30.09 in 10.0 mi WNW 6.9 mph - N/A   Clear
11:53 PM 12.0 °F 0.5 °F -0.0 °F 59% 30.09 in 10.0 mi WNW 8.1 mph - N/A   Clear